[[{"header":{"parameterUnit":"m.s-1","parameterCategory":1,"la1":30.2991,"la2":30.254,"lo1":-89.0895,"lo2":-89.0444,"dy":0.0017,"dx":0.0017,"nx":28,"ny":28,"refTime":"2023-07-27T21:00:00:Z","depth":0,"parameterNumber":2,"parameterNumberName":"U-component_of_WINDS"},"data":[0,0,0,0,0,0,0,0,0,0,0,0,0,0,0,0,0,0,0,0,0,0,0,0,0,0,0,0,0,0,0,0,0,0,0,0,0,0,0,0,0,0,0,0,0,0,0,0,0,0,0,0,0,0,0,0,0,0,1.1699,1.17,0,1.1784,1.1785,1.1786,1.1805,1.1804,1.1803,1.1803,1.1888,1.1891,1.1894,0,0,0,0,0,0,0,0,0,0,0,0,0,1.1552,1.1555,1.1699,1.17,1.1701,1.1784,1.1785,1.1786,1.1805,1.1804,1.1803,1.1803,1.1887,1.1891,1.1894,0,0,0,0,0,0,0,0,0,0,0,0,0,1.1624,1.1556,1.1699,1.1721,1.1724,1.1783,1.1785,1.1786,1.1805,1.1804,1.1803,1.1802,1.1886,1.189,1.1895,1.1939,0,0,1.1908,1.1909,0,0,0,0,0,0,0,0,1.162,1.163,1.1717,1.1719,1.1723,1.1783,1.1764,1.1837,1.1805,1.1774,1.1803,1.1802,1.1854,1.1861,1.1878,1.1943,1.1946,1.1908,1.1911,1.1912,1.1914,0,0,0,0,0,0,0,1.1615,1.1626,1.1733,1.1718,1.1722,1.1725,1.1735,1.1778,1.1818,1.1777,1.1778,1.1788,1.1855,1.1874,1.1881,1.1947,1.1908,1.1912,1.1914,1.1916,1.2049,1.205,0,0,0,0,0,0,1.1607,1.1622,1.173,1.1735,1.1668,1.1729,1.1739,1.1764,1.1817,1.1825,1.1789,1.1789,1.1868,1.1876,1.1884,1.1937,1.1912,1.1916,1.1919,1.2048,1.2049,1.2051,0,0,0,0,0,0,1.1603,1.1616,1.1727,1.1679,1.1693,1.1732,1.176,1.1766,1.1785,1.1827,1.1834,1.1801,1.1867,1.1878,1.1924,1.194,1.1918,1.1922,1.2047,1.2049,1.205,1.2045,0,0,0,0,0,0,1.1599,1.1615,1.1633,1.1679,1.1696,1.1766,1.1761,1.1769,1.1793,1.1793,1.184,1.1847,1.1867,1.1918,1.1928,1.1946,1.1925,1.2046,1.2048,1.205,1.2044,1.2046,1.2048,0,0,0,0,0,1.1594,1.1628,1.1633,1.1646,1.1719,1.1767,1.1777,1.18,1.1794,1.1812,1.1838,1.1845,1.1937,1.1922,1.1935,1.1953,1.2045,1.2047,1.2049,1.2043,1.2045,1.2048,0,0,0,0,0,0,1.1583,1.1635,1.1641,1.1692,1.1725,1.1771,1.1794,1.1803,1.1838,1.1837,1.1864,1.1874,1.1919,1.1941,1.1924,1.1997,1.1991,1.1995,1.1981,1.1984,1.1986,1.198,1.1929,0,0,0,0,0,1.1586,1.1621,1.1665,1.1705,1.1722,1.1755,1.1777,1.1791,1.1827,1.1841,1.1871,1.1904,1.194,1.1964,1.1999,1.2047,1.2056,1.2066,1.2068,1.2069,1.2073,1.2097,1.2102,1.2058,1.2058,1.2058,0,0,1.1593,1.1626,1.1647,1.1704,1.1731,1.1766,1.1766,1.1804,1.183,1.1847,1.1892,1.1915,1.1954,1.2,1.2023,1.202,1.2087,1.2072,1.2073,1.2076,1.21,1.2104,1.2108,1.2059,1.2059,1.2059,0,0,1.1624,1.1654,1.169,1.1717,1.1758,1.178,1.1788,1.1832,1.1847,1.1893,1.1906,1.1937,1.1999,1.2026,1.2048,1.2087,1.2094,1.2098,1.2108,1.2132,1.2135,1.2139,1.2151,1.2155,1.2101,1.2101,1.2101,0,1.1628,1.1683,1.1707,1.1743,1.1767,1.1783,1.1819,1.1844,1.1895,1.191,1.1907,1.1984,1.2012,1.2064,1.2073,1.2091,1.21,1.2092,1.2133,1.2136,1.214,1.2152,1.2156,1.2101,1.2101,1.2101,1.2101,0,1.1684,1.1721,1.1745,1.1793,1.182,1.1856,1.1884,1.1908,1.192,1.1941,1.1987,1.202,1.2062,1.2076,1.2089,1.2129,1.2126,1.2128,1.2121,1.2143,1.2155,1.216,1.2101,1.2101,1.2101,1.2101,0,0,1.1711,1.1771,1.178,1.1801,1.1847,1.1875,1.1911,1.1952,1.1971,1.2005,1.2035,1.2086,1.2087,1.2112,1.2127,1.2148,1.2175,1.2147,1.2148,1.215,1.222,1.2218,1.2223,1.218,1.2181,1.2182,1.2216,0,1.1747,1.1812,1.1834,1.1888,1.1921,1.1936,1.1967,1.1998,1.2018,1.2049,1.2072,1.2107,1.2106,1.2121,1.2142,1.2167,1.2189,1.2165,1.2207,1.2208,1.2196,1.2229,1.2228,1.2258,1.2221,1.2222,1.2222,0,1.1798,1.1832,1.1889,1.1928,1.1943,1.1971,1.2009,1.2039,1.2073,1.2086,1.2113,1.2126,1.2163,1.2154,1.2204,1.2187,1.2206,1.222,1.2222,1.2226,1.2216,1.2233,1.2269,1.2273,1.223,1.2229,1.2229,0,1.181,1.187,1.1911,1.1929,1.1977,1.1996,1.2017,1.205,1.2073,1.2106,1.212,1.2157,1.2177,1.2205,1.2227,1.2219,1.2275,1.2269,1.2286,1.2285,1.2296,1.2295,1.2334,1.231,1.231,1.231,1.2309,0,1.1847,1.188,1.1917,1.1942,1.198,1.2004,1.204,1.2062,1.2091,1.212,1.2136,1.2162,1.2191,1.2221,1.2238,1.2276,1.2285,1.2296,1.23,1.2294,1.2293,1.2306,1.2304,1.2311,1.2311,1.231,1.231,0,1.1867,1.1893,1.1938,1.198,1.1991,1.2016,1.2051,1.2075,1.2096,1.2132,1.2142,1.2174,1.221,1.2235,1.2282,1.2293,1.2333,1.2338,1.2322,1.2323,1.2339,1.2336,1.2387,1.2394,1.2366,1.2366,1.2366,0,1.1888,1.1914,1.1958,1.1978,1.1999,1.2032,1.2054,1.2079,1.2101,1.2142,1.2161,1.2198,1.2228,1.2284,1.2312,1.2346,1.2351,1.2366,1.2357,1.2349,1.235,1.2348,1.235,1.2368,1.2368,1.2368,1.2368,0,1.1923,1.1934,1.1966,1.2002,1.2029,1.2059,1.2089,1.2104,1.2134,1.2158,1.2195,1.2218,1.2265,1.2301,1.2338,1.2358,1.2368,1.2371,1.2377,1.237,1.2359,1.2364,1.2324,1.237,1.237,1.237,1.2369,1.2369,1.1943,1.1966,1.2,1.2035,1.206,1.2087,1.2111,1.2135,1.2166,1.2205,1.2218,1.2255,1.2287,1.2338,1.2359,1.2388,1.2387,1.2396,1.2398,1.2399,1.2398,1.2355,1.2395,1.2395,1.2395,1.2395,1.2395,0,1.1977,1.2,1.2032,1.2072,1.2099,1.2106,1.2139,1.2161,1.2193,1.2223,1.2252,1.2293,1.2328,1.2357,1.2392,1.2409,1.2414,1.2418,1.2416,1.2421,1.2398,1.2389,1.2413,1.2413,1.2413,1.2413,1.2413,1.2413,1.1998,1.2037,1.2052,1.2103,1.2125,1.2162,1.218,1.2204,1.2227,1.2272,1.2301,1.232,1.2349,1.2386,1.2417,1.2425,1.2436,1.2438,1.2447,1.2425,1.2422,1.242,1.2412,1.2441,1.2441,1.2467,1.2467,1.2468]},{"header":{"parameterUnit":"m.s-1","parameterCategory":1,"la1":30.2991,"la2":30.254,"lo1":-89.0895,"lo2":-89.0444,"dy":0.0017,"dx":0.0017,"nx":28,"ny":28,"refTime":"2023-07-27T21:00:00:Z","depth":0,"parameterNumber":3,"parameterNumberName":"V-component_of_WINDS"},"data":[0,0,0,0,0,0,0,0,0,0,0,0,0,0,0,0,0,0,0,0,0,0,0,0,0,0,0,0,0,0,0,0,0,0,0,0,0,0,0,0,0,0,0,0,0,0,0,0,0,0,0,0,0,0,0,0,0,0,3.4832,3.4831,0,3.4777,3.4776,3.4776,3.4685,3.4683,3.4681,3.468,3.4624,3.4625,3.4625,0,0,0,0,0,0,0,0,0,0,0,0,0,3.4859,3.4859,3.4832,3.4831,3.4831,3.4777,3.4776,3.4776,3.4685,3.4683,3.4681,3.4679,3.4624,3.4625,3.4625,0,0,0,0,0,0,0,0,0,0,0,0,0,3.483,3.4859,3.4832,3.4779,3.4774,3.4777,3.4776,3.4775,3.4685,3.4683,3.468,3.4678,3.4624,3.4625,3.4625,3.4676,0,0,3.4625,3.4625,0,0,0,0,0,0,0,0,3.4832,3.4829,3.4788,3.4783,3.4777,3.4735,3.4765,3.4742,3.4686,3.4719,3.468,3.4677,3.4663,3.466,3.4655,3.4673,3.4671,3.4625,3.4625,3.4625,3.4625,0,0,0,0,0,0,0,3.4834,3.4831,3.481,3.4787,3.4781,3.4758,3.4751,3.4761,3.4706,3.4716,3.4709,3.4704,3.466,3.4655,3.4653,3.467,3.4625,3.4625,3.4625,3.4625,3.4725,3.4728,0,0,0,0,0,0,3.4844,3.4833,3.4812,3.4809,3.4799,3.476,3.4752,3.4751,3.4706,3.4696,3.4706,3.47,3.4656,3.4653,3.4651,3.4706,3.4625,3.4625,3.4625,3.4723,3.4726,3.4728,0,0,0,0,0,0,3.4845,3.4843,3.4814,3.4819,3.4814,3.4762,3.4762,3.4751,3.4747,3.4698,3.4688,3.4712,3.4654,3.4651,3.467,3.4703,3.4625,3.4626,3.472,3.4724,3.4727,3.4818,0,0,0,0,0,0,3.4846,3.4844,3.4863,3.482,3.4814,3.4834,3.4764,3.4752,3.4747,3.4738,3.4701,3.4692,3.4652,3.467,3.467,3.4702,3.4626,3.4716,3.4721,3.4726,3.4812,3.4825,3.4836,0,0,0,0,0,3.4847,3.4891,3.4864,3.4862,3.4836,3.4836,3.4833,3.4786,3.475,3.4768,3.4737,3.4693,3.47,3.4673,3.4672,3.4704,3.4714,3.472,3.4726,3.4807,3.4822,3.4836,0,0,0,0,0,0,3.4939,3.4885,3.4854,3.4885,3.4866,3.4821,3.4843,3.4804,3.4795,3.4787,3.4729,3.4722,3.4748,3.4728,3.4699,3.4751,3.47,3.4706,3.4762,3.4777,3.4788,3.4792,3.4626,0,0,0,0,0,3.4963,3.4968,3.492,3.4952,3.4944,3.4895,3.4894,3.4859,3.4837,3.4828,3.4798,3.4779,3.4776,3.4775,3.477,3.4809,3.4799,3.4831,3.4843,3.4853,3.4858,3.4876,3.4889,3.4747,3.4747,3.4747,0,0,3.5013,3.4983,3.499,3.497,3.4951,3.4956,3.4889,3.4898,3.4901,3.483,3.4845,3.4823,3.4797,3.4825,3.4836,3.481,3.4895,3.486,3.4869,3.4868,3.4883,3.4896,3.4908,3.4751,3.4751,3.475,0,0,3.5105,3.5084,3.5108,3.509,3.5062,3.5029,3.5035,3.4995,3.4977,3.4992,3.4938,3.4941,3.4939,3.4921,3.4913,3.4998,3.4957,3.4999,3.506,3.5077,3.5088,3.5098,3.5127,3.5138,3.5004,3.5005,3.5005,0,3.517,3.5176,3.5125,3.5137,3.5129,3.5064,3.5088,3.5073,3.5045,3.5041,3.5012,3.5006,3.4984,3.5007,3.5028,3.5023,3.5027,3.5002,3.5091,3.51,3.5108,3.5135,3.5146,3.501,3.5009,3.5009,3.5008,0,3.5257,3.5262,3.5284,3.5258,3.5253,3.5271,3.5222,3.5223,3.519,3.516,3.5175,3.5146,3.5134,3.5137,3.5104,3.5155,3.5139,3.5102,3.5049,3.5128,3.5152,3.5162,3.5017,3.5015,3.5014,3.5012,0,0,3.5405,3.535,3.5359,3.5345,3.5309,3.5312,3.5327,3.5314,3.5315,3.5298,3.5308,3.5307,3.5271,3.5261,3.5226,3.5242,3.5309,3.5202,3.52,3.5221,3.5361,3.5388,3.5401,3.5282,3.5284,3.5285,3.5363,0,3.5488,3.5509,3.5464,3.5496,3.5499,3.5437,3.545,3.5429,3.5402,3.54,3.537,3.537,3.5324,3.5317,3.533,3.5298,3.5336,3.5292,3.5289,3.529,3.5296,3.5414,3.5443,3.5518,3.5372,3.5373,3.5375,0,3.5588,3.5575,3.5608,3.5569,3.5568,3.558,3.5564,3.5564,3.5539,3.5518,3.5507,3.5465,3.5476,3.5427,3.544,3.5411,3.5408,3.5392,3.5394,3.539,3.5336,3.5412,3.554,3.5551,3.5389,3.5388,3.5387,0,3.5691,3.5682,3.5699,3.569,3.5646,3.5655,3.5637,3.5609,3.5604,3.559,3.5586,3.5574,3.5567,3.5559,3.5515,3.5483,3.5533,3.5481,3.5515,3.5516,3.5527,3.5526,3.5654,3.5528,3.5528,3.5527,3.5527,0,3.5788,3.581,3.5745,3.5755,3.5778,3.5725,3.5749,3.5725,3.5701,3.5705,3.5652,3.5657,3.56,3.5598,3.5564,3.558,3.5578,3.556,3.555,3.5564,3.5566,3.5559,3.5552,3.553,3.553,3.5529,3.5529,0,3.5905,3.5863,3.5878,3.5834,3.5824,3.5842,3.5804,3.5812,3.5782,3.5788,3.5786,3.5738,3.5734,3.569,3.5676,3.5653,3.5681,3.5663,3.569,3.5683,3.5719,3.5715,3.5846,3.5859,3.5726,3.5727,3.5729,0,3.5969,3.5984,3.5942,3.5941,3.5925,3.5925,3.5919,3.5868,3.5864,3.5836,3.5848,3.5839,3.5829,3.5825,3.5789,3.5778,3.5757,3.5804,3.5755,3.5768,3.5756,3.5755,3.5755,3.5814,3.5816,3.5817,3.5818,0,3.6086,3.6064,3.6058,3.6044,3.6039,3.6026,3.6009,3.6011,3.5955,3.5954,3.5948,3.5941,3.5926,3.5918,3.59,3.5881,3.584,3.5834,3.5841,3.5854,3.5868,3.5859,3.5716,3.5831,3.5829,3.5829,3.5828,3.5827,3.6177,3.6187,3.6159,3.6153,3.6136,3.6121,3.6126,3.6096,3.6091,3.6075,3.6045,3.6044,3.6017,3.5989,3.5974,3.5971,3.5947,3.5958,3.596,3.5963,3.597,3.587,3.5968,3.5968,3.5968,3.5967,3.5967,0,3.629,3.6269,3.6264,3.6242,3.6238,3.62,3.618,3.6178,3.6178,3.6157,3.6148,3.6141,3.6133,3.6096,3.6083,3.6088,3.6069,3.6087,3.6085,3.6081,3.5993,3.5987,3.6102,3.6102,3.6102,3.6102,3.6102,3.6102,3.6348,3.6363,3.6337,3.6342,3.632,3.6319,3.631,3.6296,3.6279,3.6274,3.6266,3.6242,3.6214,3.6199,3.6189,3.6178,3.6175,3.6199,3.6182,3.61,3.6087,3.6075,3.6069,3.6199,3.6199,3.6269,3.6269,3.627]}]]